Date String (YYYY-MM-DD hh:mm:ss) UTC,Instrument flags,Ambient pressure (hPa),Sample flow (lpm),Bypass flow (lpm),Sample temperature (°C),Ambient temperature (°C),ASC tube jacket temperature (°C),LED temperature (°C),Box temperature (°C),Sample RH (%),Span deviation,Mass concentration (μg/m³),Mass concentration (μg/m³),Mass concentration (μg/m³)
DateTimeUTC,F1_M11,P_M11,Q1_M11,Q2_M11,T1_M11,T2_M11,T3_M11,T4_M11,T5_M11,U1_M11,ZSPAN_M11,X0_M11,X2_M11,X1_M11
2022-07-10 21:00:00,,0829.5,5.00,0.00,41.7,40.5,00.0,50.2,42.6,09.7,0000.0,0017.76,0004.32,0003.47
2022-07-10 21:01:00,,0829.6,5.01,0.00,41.7,40.5,00.0,50.3,42.6,10.0,0000.0,0019.51,0004.33,0003.47
2022-07-10 21:02:00,,0829.6,4.99,0.00,41.7,40.5,00.0,50.3,42.7,10.6,0000.0,0019.13,0004.35,0003.48
2022-07-10 21:03:00,,0829.6,5.00,0.00,41.7,40.5,00.0,50.3,42.6,10.5,0000.0,0019.82,0004.37,0003.48
2022-07-10 21:04:00,,0829.7,5.01,0.00,41.7,40.5,00.0,50.3,42.7,10.5,0000.0,0019.89,0004.39,0003.48
2022-07-10 21:05:00,,0829.6,5.00,0.00,41.7,40.5,00.0,50.3,42.6,10.9,0000.0,0019.55,0004.42,0003.47
2022-07-10 21:06:00,,0829.6,4.99,0.00,41.7,40.5,00.0,50.3,42.6,10.6,0000.0,0019.15,0004.44,0003.47
2022-07-10 21:07:00,,0829.7,5.00,0.00,41.7,40.4,00.0,50.3,42.6,10.0,0000.0,0018.01,0004.47,0003.45
2022-07-10 21:08:00,,0829.6,5.01,0.00,41.7,40.4,00.0,50.3,42.7,10.8,0000.0,0016.53,0004.40,0003.43
2022-07-10 21:09:00,,0829.6,5.01,0.00,41.7,40.4,00.0,50.3,42.7,10.3,0000.0,0016.70,0004.39,0003.41
2022-07-10 21:10:00,,0829.6,4.99,0.00,41.7,40.4,00.0,50.3,42.6,10.3,0000.0,0016.49,0004.41,0003.39
2022-07-10 21:11:00,,0829.6,5.00,0.00,41.7,40.4,00.0,50.3,42.6,10.1,0000.0,0015.43,0004.42,0003.39
2022-07-10 21:12:00,,0829.6,5.00,0.00,41.7,40.4,00.0,50.3,42.6,09.6,0000.0,0013.61,0004.41,0003.39
2022-07-10 21:13:00,,0829.6,4.99,0.00,41.7,40.5,00.0,50.3,42.7,09.5,0000.0,0014.35,0004.39,0003.39
2022-07-10 21:14:00,,0829.6,4.99,0.00,41.7,40.5,00.0,50.3,42.7,09.5,0000.0,0013.63,0004.38,0003.39
2022-07-10 21:15:00,,0829.5,5.00,0.00,41.7,40.5,00.0,50.3,42.7,09.8,0000.0,0013.01,0004.37,0003.39
2022-07-10 21:16:00,,0829.5,5.01,0.00,41.7,40.5,00.0,50.3,42.7,10.3,0000.0,0013.42,0004.34,0003.38
2022-07-10 21:17:00,,0829.6,5.00,0.00,41.7,40.5,00.0,50.3,42.7,10.6,0000.0,0012.93,0004.31,0003.38
2022-07-10 21:18:00,,0829.6,4.99,0.00,41.7,40.5,00.0,50.3,42.7,10.1,0000.0,0013.64,0004.27,0003.39
2022-07-10 21:19:00,,0829.5,5.01,0.00,41.8,40.6,00.0,50.3,42.7,09.9,0000.0,0013.44,0004.31,0003.41
2022-07-10 21:20:00,,0829.5,5.01,0.00,41.8,40.6,00.0,50.3,42.7,09.6,0000.0,0012.91,0004.28,0003.42
2022-07-10 21:21:00,,0829.5,4.98,0.00,41.8,40.6,00.0,50.3,42.7,09.7,0000.0,0012.54,0004.26,0003.42
2022-07-10 21:22:00,,0829.5,5.02,0.00,41.8,40.6,00.0,50.3,42.7,09.7,0000.0,0013.01,0004.21,0003.43
2022-07-10 21:23:00,,0829.5,5.01,0.00,41.8,40.6,00.0,50.4,42.7,09.4,0000.0,0012.69,0004.17,0003.43
2022-07-10 21:24:00,,0829.5,4.99,0.00,41.8,40.6,00.0,50.4,42.7,09.4,0000.0,0011.63,0004.17,0003.43
2022-07-10 21:25:00,,0829.4,5.00,0.00,41.8,40.7,00.0,50.4,42.7,09.6,0000.0,0011.73,0004.17,0003.44
2022-07-10 21:26:00,,0829.5,5.01,0.00,41.8,40.7,00.0,50.4,42.7,10.0,0000.0,0011.76,0004.15,0003.46
2022-07-10 21:27:00,,0829.5,5.00,0.00,41.8,40.7,00.0,50.4,42.8,10.4,0000.0,0011.26,0004.14,0003.48
2022-07-10 21:28:00,,0829.4,4.99,0.00,41.8,40.7,00.0,50.4,42.8,09.3,0000.0,0011.20,0004.12,0003.48
2022-07-10 21:29:00,,0829.4,5.00,0.00,41.8,40.7,00.0,50.4,42.8,09.4,0000.0,0010.35,0004.10,0003.47
2022-07-10 21:30:00,,0829.4,5.00,0.00,41.8,40.7,00.0,50.4,42.8,09.3,0000.0,0010.16,0004.08,0003.48
2022-07-10 21:31:00,,0829.3,5.01,0.00,41.9,40.7,00.0,50.4,42.8,09.3,0000.0,0010.39,0004.12,0003.49
2022-07-10 21:32:00,,0829.3,5.01,0.00,41.9,40.7,00.0,50.4,42.8,09.6,0000.0,0010.54,0004.16,0003.51
2022-07-10 21:33:00,,0829.3,5.00,0.00,41.9,40.7,00.0,50.4,42.8,09.4,0000.0,0010.17,0004.18,0003.52
2022-07-10 21:34:00,,0829.3,4.99,0.00,41.9,40.8,00.0,50.4,42.8,09.4,0000.0,0009.56,0004.18,0003.53
2022-07-10 21:35:00,,0829.3,5.00,0.00,41.9,40.8,00.0,50.4,42.8,09.2,0000.0,0009.31,0004.18,0003.53
2022-07-10 21:36:00,,0829.2,5.01,0.00,41.9,40.8,00.0,50.5,42.9,09.2,0000.0,0009.40,0004.16,0003.54
2022-07-10 21:37:00,,0829.4,5.00,0.00,41.9,40.8,00.0,50.5,42.9,09.5,0000.0,0010.40,0004.18,0003.55
2022-07-10 21:38:00,,0829.4,5.01,0.00,41.9,40.8,00.0,50.5,42.9,09.3,0000.0,0010.62,0004.17,0003.56
2022-07-10 21:39:00,,0829.4,4.99,0.00,41.9,40.8,00.0,50.5,42.9,09.1,0000.0,0010.52,0004.17,0003.56
2022-07-10 21:40:00,,0829.5,5.00,0.00,41.9,40.8,00.0,50.5,42.9,09.1,0000.0,0010.39,0004.19,0003.59
2022-07-10 21:41:00,,0829.5,5.00,0.00,41.9,40.8,00.0,50.5,42.9,09.1,0000.0,0010.37,0004.19,0003.60
2022-07-10 21:42:00,,0829.6,5.01,0.00,41.9,40.8,00.0,50.5,42.9,09.0,0000.0,0010.27,0004.19,0003.61
2022-07-10 21:43:00,,0829.5,5.00,0.00,42.0,40.8,00.0,50.5,42.9,09.0,0000.0,0010.29,0004.16,0003.62
2022-07-10 21:44:00,,0829.6,5.00,0.00,42.0,40.8,00.0,50.5,42.9,09.7,0000.0,0010.22,0004.16,0003.63
2022-07-10 21:45:00,,0829.7,5.00,0.00,42.0,40.8,00.0,50.5,42.9,09.5,0000.0,0010.63,0004.19,0003.64
2022-07-10 21:46:00,,0829.8,5.01,0.00,42.0,40.8,00.0,50.5,42.9,09.4,0000.0,0010.81,0004.17,0003.65
2022-07-10 21:47:00,,0829.9,5.00,0.00,42.0,40.8,00.0,50.6,42.9,11.1,0000.0,0010.29,0004.17,0003.63
2022-07-10 21:48:00,,0829.9,5.00,0.00,42.0,40.8,00.0,50.6,42.9,10.9,0000.0,0009.59,0004.14,0003.62
2022-07-10 21:49:00,,0830.0,5.00,0.00,42.0,40.8,00.0,50.6,42.9,10.0,0000.0,0009.18,0004.15,0003.62
2022-07-10 21:50:00,,0830.1,5.00,0.00,42.0,40.8,00.0,50.6,42.9,10.0,0000.0,0009.70,0004.18,0003.61
2022-07-10 21:51:00,,0830.1,5.00,0.00,42.0,40.8,00.0,50.6,42.9,10.2,0000.0,0009.89,0004.16,0003.60
2022-07-10 21:52:00,,0830.0,5.01,0.00,42.0,40.8,00.0,50.6,42.9,10.6,0000.0,0009.99,0004.16,0003.59
2022-07-10 21:53:00,,0830.0,5.00,0.00,42.0,40.8,00.0,50.6,42.9,10.1,0000.0,0010.22,0004.17,0003.59
2022-07-10 21:54:00,,0830.0,5.00,0.00,42.0,40.8,00.0,50.6,42.9,09.7,0000.0,0010.26,0004.20,0003.60
2022-07-10 21:55:00,,0830.0,5.01,0.00,42.0,40.7,00.0,50.6,42.9,09.4,0000.0,0010.59,0004.22,0003.62
2022-07-10 21:56:00,,0830.0,5.00,0.00,42.0,40.7,00.0,50.6,42.9,09.0,0000.0,0010.54,0004.24,0003.65
2022-07-10 21:57:00,,0830.1,5.01,0.00,42.0,40.7,00.0,50.6,42.9,09.0,0000.0,0011.08,0004.26,0003.67
2022-07-10 21:58:00,,0830.0,5.00,0.00,42.0,40.7,00.0,50.6,42.9,08.8,0000.0,0011.02,0004.25,0003.69
2022-07-10 21:59:00,,0829.9,4.99,0.00,42.0,40.7,00.0,50.6,42.9,08.7,0000.0,0010.97,0004.25,0003.71
